Content
SEND FEEDBACK

Daily
Averages
Monthly
Summary
United States of America

MOULTON, ALABAMA


Home > North America > United States > Alabama
Elevation: 623 feet     Latitude: 34 29N     Longitude: 087 18W

WEATHER
 
SELECT A DAY
Number of Records: 63,631;   Date Range: 10/18/10 - 8/22/13
 
SHARE

PRINT THIS DATA

[ ← Previous Day ]
WEATHER ALMANAC - JANUARY 31, 2013
[ Next Day → ]
[ °C ]   °F
Weather ElementAverageHighLow
Temperature39.8 °F50 °F (2:35 pm)32 °F (3:35 am)
Dewpoint26.2 °F32 °F (11:55 pm)21.2 °F (2:55 pm)
Humidity60.4 %80 % (3:35 am)32 % (2:55 pm)
Barometer30.12 in30.21 in (11:55 pm)30.01 in (12:35 am)
Wind Speed10.6 mph18.4 mph (11:55 pm)
Wind Gust24.2 mph (1:35 am)
Weather ElementAverage
Visibility10 mi
Wind DirectionW (267.7 °)

Weather ElementTotal
Precipitation---
Heating Degree Days24 (Base 65)
Averaged from 70 records on January 31, 2013
WEATHER CONDITIONS BREAKOUT
WIND DIRECTION BREAKOUT
WEATHER BY HOUR - JANUARY 31, 2013
[ °C ]   °F
Local TimeTemperatureDewpointHumidityBarometerVisibilityWind DirectionWind SpeedGust SpeedPrecipitationEventsConditions
12:35 AM35.6 °F26.6 °F70 %30.01 in10.0 miNW (310°)16.1 mph19.6 mphOvercast
12:55 AM35.6 °F26.6 °F70 %30.01 in10.0 miWNW (300°)9.2 mphOvercast
1:15 AM35.6 °F26.6 °F70 %30.03 in10.0 miWest (280°)15.0 mph19.6 mphOvercast
1:35 AM35.6 °F24.8 °F65 %30.03 in10.0 miWNW (300°)16.1 mph24.2 mphOvercast
1:55 AM35.6 °F24.8 °F65 %30.04 in10.0 miWNW (300°)13.8 mph20.7 mphOvercast
2:15 AM35.6 °F24.8 °F65 %30.04 in10.0 miWNW (290°)12.7 mph20.7 mphOvercast
2:35 AM33.8 °F24.8 °F70 %30.04 in10.0 miWNW (290°)11.5 mphMostly Cloudy
2:55 AM33.8 °F24.8 °F70 %30.03 in10.0 miWest (280°)9.2 mphMostly Cloudy
3:15 AM33.8 °F26.6 °F75 %30.04 in10.0 miWest (280°)10.4 mph16.1 mphScattered Clouds
3:35 AM32.0 °F26.6 °F80 %30.04 in10.0 miWest (280°)10.4 mphScattered Clouds
3:55 AM32.0 °F24.8 °F75 %30.04 in10.0 miWest (270°)9.2 mphClear
4:15 AM32.0 °F24.8 °F75 %30.05 in10.0 miWest (270°)9.2 mphClear
4:35 AM32.0 °F24.8 °F75 %30.05 in10.0 miWest (270°)10.4 mphClear
4:55 AM32.0 °F26.6 °F80 %30.06 in10.0 miWest (260°)10.4 mphClear
5:15 AM32.0 °F26.6 °F80 %30.08 in10.0 miWest (260°)8.1 mphClear
5:35 AM32.0 °F26.6 °F80 %30.09 in10.0 miWSW (250°)6.9 mphMostly Cloudy
5:55 AM32.0 °F26.6 °F80 %30.09 in10.0 miWest (260°)9.2 mphMostly Cloudy
6:15 AM32.0 °F26.6 °F80 %30.09 in10.0 miWSW (250°)5.8 mphScattered Clouds
6:55 AM32.0 °F26.6 °F80 %30.11 in10.0 miWest (260°)8.1 mphScattered Clouds
7:15 AM32.0 °F26.6 °F80 %30.12 in10.0 miWest (270°)10.4 mphScattered Clouds
7:35 AM32.0 °F26.6 °F80 %30.14 in10.0 miWest (270°)11.5 mph17.3 mphClear
7:55 AM32.0 °F26.6 °F80 %30.16 in10.0 miWNW (290°)9.2 mph17.3 mphClear
8:15 AM32.0 °F24.8 °F75 %30.18 in10.0 miWest (280°)11.5 mph17.3 mphClear
8:35 AM33.8 °F26.6 °F75 %30.18 in10.0 miWNW (290°)10.4 mphClear
8:55 AM33.8 °F24.8 °F70 %30.18 in10.0 miWest (280°)15.0 mph18.4 mphClear
9:15 AM33.8 °F24.8 °F70 %30.18 in10.0 miWNW (300°)13.8 mphClear
9:35 AM35.6 °F24.8 °F65 %30.18 in10.0 miWNW (290°)15.0 mphClear
9:55 AM35.6 °F26.6 °F70 %30.18 in10.0 miWNW (300°)15.0 mph20.7 mphClear
10:15 AM37.4 °F26.6 °F65 %30.19 in10.0 miWNW (290°)12.7 mph20.7 mphClear
10:35 AM37.4 °F26.6 °F65 %30.19 in10.0 miWNW (290°)8.1 mph17.3 mphClear
10:55 AM39.2 °F26.6 °F61 %30.20 in10.0 miWNW (300°)11.5 mph17.3 mphClear
11:15 AM41.0 °F26.6 °F57 %30.20 in10.0 miWNW (290°)10.4 mph16.1 mphClear
11:35 AM41.0 °F26.6 °F57 %30.18 in10.0 miWest (280°)10.4 mph16.1 mphClear
11:55 AM42.8 °F26.6 °F53 %30.18 in10.0 miWest (270°)10.4 mphClear
12:15 PM42.8 °F23.0 °F46 %30.16 in10.0 miWest (270°)9.2 mphClear
12:35 PM44.6 °F23.0 °F43 %30.15 in10.0 miWNW (300°)13.8 mph19.6 mphClear
12:55 PM46.4 °F24.8 °F43 %30.15 in10.0 miNW (310°)10.4 mph18.4 mphClear
1:15 PM46.4 °F23.0 °F40 %30.13 in10.0 miNW (320°)9.2 mphClear
1:35 PM46.4 °F23.0 °F40 %30.14 in10.0 miWNW (290°)11.5 mph16.1 mphClear
1:55 PM48.2 °F23.0 °F37 %30.13 in10.0 miNW (310°)9.2 mphClear
2:15 PM48.2 °F23.0 °F37 %30.13 in10.0 miWNW (290°)9.2 mph24.2 mphClear
2:35 PM50.0 °F23.0 °F35 %30.13 in10.0 miWSW (250°)12.7 mph20.7 mphClear
2:55 PM50.0 °F21.2 °F32 %30.13 in10.0 miWest (260°)11.5 mph19.6 mphClear
3:15 PM50.0 °F23.0 °F35 %30.12 in10.0 miWSW (240°)11.5 mph16.1 mphClear
3:35 PM50.0 °F23.0 °F35 %30.11 in10.0 miWSW (250°)17.3 mph20.7 mphClear
3:55 PM50.0 °F23.0 °F35 %30.11 in10.0 miWSW (240°)11.5 mph19.6 mphClear
4:15 PM50.0 °F23.0 °F35 %30.10 in10.0 miSW (230°)10.4 mphClear
4:35 PM48.2 °F24.8 °F40 %30.10 in10.0 miWSW (240°)13.8 mph18.4 mphClear
4:55 PM48.2 °F24.8 °F40 %30.10 in10.0 miWSW (240°)12.7 mphClear
5:15 PM46.4 °F26.6 °F46 %30.10 in10.0 miWSW (240°)9.2 mphClear
5:35 PM44.6 °F26.6 °F49 %30.11 in10.0 miWSW (240°)8.1 mphClear
5:55 PM44.6 °F28.4 °F53 %30.12 in10.0 miWSW (240°)6.9 mphClear
6:15 PM42.8 °F28.4 °F57 %30.13 in10.0 miSW (230°)5.8 mphClear
6:35 PM42.8 °F28.4 °F57 %30.13 in10.0 miSW (220°)4.6 mphClear
6:55 PM41.0 °F28.4 °F61 %30.13 in10.0 miSW (220°)5.8 mphClear
7:15 PM41.0 °F28.4 °F61 %30.13 in10.0 miSSW (210°)5.8 mphClear
7:35 PM41.0 °F28.4 °F61 %30.12 in10.0 miSW (220°)4.6 mphClear
7:55 PM41.0 °F28.4 °F61 %30.13 in10.0 miSW (230°)8.1 mphClear
8:15 PM41.0 °F28.4 °F61 %30.13 in10.0 miSW (230°)6.9 mphClear
8:35 PM41.0 °F28.4 °F61 %30.14 in10.0 miWSW (240°)6.9 mphClear
8:55 PM42.8 °F28.4 °F57 %30.15 in10.0 miWSW (250°)9.2 mphClear
9:15 PM41.0 °F28.4 °F61 %30.15 in10.0 miWSW (240°)8.1 mphClear
9:35 PM41.0 °F30.2 °F65 %30.14 in10.0 miSW (230°)8.1 mphClear
9:55 PM41.0 °F28.4 °F61 %30.14 in10.0 miSW (230°)11.5 mphClear
10:15 PM41.0 °F28.4 °F61 %30.14 in10.0 miSW (230°)11.5 mphClear
10:35 PM42.8 °F28.4 °F57 %30.14 in10.0 miSW (230°)10.4 mphMostly Cloudy
10:55 PM42.8 °F28.4 °F57 %30.18 in10.0 miNW (310°)16.1 mph19.6 mphMostly Cloudy
11:15 PM44.6 °F30.2 °F57 %30.18 in10.0 miWNW (290°)11.5 mph18.4 mphScattered Clouds
11:35 PM44.6 °F30.2 °F57 %30.20 in10.0 miWNW (300°)13.8 mph23.0 mphClear
11:55 PM42.8 °F32.0 °F66 %30.21 in10.0 miNW (320°)18.4 mph24.2 mphClear
Hourly data recorded from K9A4, located miles away from Moulton, Alabama







STORIES FROM OUR PARTNERS